Overview Statistics Trail Chart Weather Telemetry Raw packets
 

This is the latest recevied weather packets stored in our database for station/object KB8TTR. If no packets are shown the sender has not sent any weather packets the latest 10 day(s).

<< 110 111 112 113 114 >>
Time Temp. Humidity Pressure Rain* Wind** Luminosity Snow
1787781210 26.11° C 61% 1013.6 hPa 0 mm - 52 W/m² -
1787780908 26.11° C 60% 1013.6 hPa 0 mm - 78 W/m² -
1787780603 26.67° C 60% 1013.7 hPa 0 mm - 79 W/m² -
1787780298 26.67° C 60% 1013.6 hPa 0 mm - 110 W/m² -
1787779994 26.67° C 60% 1013.6 hPa 0 mm - 137 W/m² -
1787779690 26.67° C 60% 1013.5 hPa 0 mm - 128 W/m² -
1787779388 26.67° C 60% 1013.8 hPa 0 mm - 203 W/m² -
1787779084 26.67° C 58% 1013.7 hPa 0 mm - 151 W/m² -
1787778784 26.67° C 58% 1013.6 hPa 0 mm - 250 W/m² -
1787778480 26.67° C 59% 1013.8 hPa 0 mm - 164 W/m² -
1787778175 26.67° C 58% 1013.8 hPa 0 mm - 181 W/m² -
1787777875 26.67° C 58% 1013.9 hPa 0 mm - 133 W/m² -
1787777572 27.22° C 56% 1013.9 hPa 0 mm - 104 W/m² -
1787777272 27.78° C 55% 1014.1 hPa 0 mm - 222 W/m² -
1787776971 27.22° C 56% 1013.8 hPa 0 mm - 234 W/m² -
1787776670 27.78° C 54% 1014 hPa 0 mm - 370 W/m² -
1787776369 27.78° C 54% 1014.3 hPa 0 mm - 235 W/m² -
1787776067 27.78° C 54% 1014.4 hPa 0 mm - 222 W/m² -
1787775763 27.78° C 54% 1014.4 hPa 0 mm - 617 W/m² -
1787775462 27.78° C 53% 1014.6 hPa 0 mm - 224 W/m² -
1787775161 28.33° C 52% 1014.5 hPa 0 mm - 579 W/m² -
1787774860 28.33° C 51% 1014.5 hPa 0 mm - 598 W/m² -
1787774559 28.33° C 51% 1014.8 hPa 0 mm - 631 W/m² -
1787774258 28.33° C 53% 1014.8 hPa 0 mm - 633 W/m² -
1787773958 28.33° C 51% 1014.7 hPa 0 mm - 628 W/m² -

* Rain latest hour (hover to see other rain measurements)
** Current wind speed in m/s (hover to see current wind gust speed)